ATLAS 5 CENTAUR DEB, 43984

Orbit data source: Space-Track

ATLAS 5 CENTAUR DEB, 43984 is space debris in HEO originally from a launch on Wed, 17 Sep 2014 UTC launched from the Air Force Eastern Test Range (AFETR). Debris objects in space refer to the collection of defunct objects orbiting the Earth. Examples of debris include non-operational satellites, rocket bodies, and fragments generated from explosions, collisions, or faulty payload assembly.

Loading next visibility...
Identifier
43984, 2014-055AP
Orbit
HEO
Country
Flag of USUS
Related business
Flag of USUnited Launch Alliance/Lockheed Martin (US)
Manufacturer
Unknown
Mission
Spacecraft
Bus & Motor
Unknown
Mass
Unknown
Launch date (UTC)
2014-09-17 (12 years ago)
Launch vehicle
Unknown
Launch site
Air Force Eastern Test Range (AFETR)
Object type
Payload
Rocket body
Debris
Shape & HBR
Unknown shape, 1.1 m
Radar Cross Section
Small (<0.1 m²)

Expand to show TLE details & history
Last TLE update: 2 days ago

TLE from 2 days ago
0 ATLAS 5 CENTAUR DEB
1 43984U 14055AP  26125.23391363 -.00000208  00000-0  00000-0 0  9990
2 43984  21.0639  97.5393 5112524 246.2542  53.1794  1.91694183 53607
Epoch: 2026-05-05T05:36Z
TLE epoch observation values (Epoch: 2026-05-05T05:36:50.137Z)
Latitude
-0.00001°
Longitude
150.12778°
Altitude
19,059.019 km
Speed
4.096 km/s
True Right ascension
06h 29m 47s
True Declination
0° 00' 00"
Sunlit
Object was in daylight at epoch
Visualization orbit readout
Latitude
Unknown
Longitude
Unknown
Altitude
Unknown
Speed
Unknown
Apparent Right ascension
Unknown
Apparent Declination
Unknown
Sunlit
N/A
Visualization observer readout
Local Sidereal Time
06:33:19
Azimuth
Unknown
Elevation
Unknown
Doppler factor
Unknown
Orbital elements
Apogee altitude
34,993.138 km
Perigee altitude
7,001.568 km
Semi-major axis
27,375.49 km
Eccentricity
0.51125
Inclination
21.0639°
RAAN
97.5393°
Arg. of periapsis
246.2542°
True anomaly
113.8004°
Mean anomaly
53.1794°
Eccentric anomaly
82.20106°
Mean motion
0.47918 °/min
Orbital period
751.28 mins
BSTAR
0
Loading maneuver chart data...
Computing Atmospheric mass density...

Documentation

Showing up to 5 results
|